Location: Burgwalden
(48.2830°N, 10.7576°E)
Time: 22:42:15
(UTC+00:00)

NOSS 2-2 (E) - Pass Details

Date: 26 September 2023
Orbit: 408 x 1757 km, 63.3° (Epoch: 05 December)

Event Time Altitude Azimuth Distance (km) Brightness Sun altitude
Exits shadow 01:16:33 28° 63° (ENE) 1,380 5.7 -35.3°
Drops below altitude 10° 01:20:29 10° 100° (E) 2,562 7.0 -34.9°
Enters shadow 02:47:24 -32° 320° (NW) 7,515 9.1 -23.5°
Maximum altitude 03:05:48 58° 233° (SW) 962 4.1 -20.7°
